SCP
0 0 0 0 0 0 0 0 0 0 0 0 0 0 0 0 0 0 0 0 0 0 0 0 0 -0 -0 -0 -0 -0 0 0 0 0 0 0 0 0
0 0 0 0 0 0 0 0 0 0 0 0 0 0 0 0 0 0 0 0 0 0 0 0 -0 -0 -0 -0 -0 0 0 0 0 0 0 0 0 0
0 0 0 0 0 0 0 -0 0 0 0 0 0 0 0 0 0 0 0 0 0 0 0 -0 -0 -0 -0 -0 -0 0 0 0 0 0 0 0 0 0
0 0 0 0 0 0 0 0 0 0 0 0 0 0 0 0 0 0 0 0 0 0 -0 -0 -0 -0 -0 -0 0 0 0 0 0 0 0 0 0 0
0 0 0 0 0 0 0 0 0 0 0 0 0 0 0 0 0 0 0 0 0 0 -0 -0 -0 -0 -0 0 0 0 0 0 0 0 0 0 0 0
-0 -0 0 0 0 0 0 0 0 0 0 0 0 0 0 0 0 0 0 0 0 0 0 -0 -0 -0 0 0 0 0 0 0 0 0 0 0 0 0
0 0 0 0 0 0 0 0 0 0 0 0 0 0 0 0 0 0 0 0 0 0 0 0 0 0 0 0 0 0 0 0 0 0 0 0 0 0
0 0 0 0 -0 -0 0 0 0 0 0 0 0 0 0 0 0 -0 0 0 0 0 0 0 0 0 0 0 0 0 0 0 0 0 0 0 0 0
0 0 0 0 0 0 0 0 0 0 0 0 0 -0 -0 -0 -0 0 0 0 0 0 0 0 0 0 0 0 0 0 0 0 0 0 0 0 0 0
0 0 0 0 0 0 0 0 0 0 0 -0 -0 -0 0 -0 -0 0 -0 0 0 0 0 0 0 0 0 0 0 0 0 0 0 0 0 0 0 0
0 0 0 0 0 0 0 0 0 0 0 -0 -0 -0 -0 -0 -0 -0 0 0 0 0 -0 0 0 0 0 0 0 0 0 0 0 0 0 0 0 0
-0 -0 -0 -0 -0 -0 0 0 0 0 0 0 -0 -0 -0 -0 -0 0 0 0 0 0 0 0 0 0 0 0 0 0 0 0 0 0 0 0 0 0
-0 -0 -0 -0 -0 0 0 0 -0 0 0 0 0 0 0 0 0 0 0 0 0 -0 0 0 0 0 0 0 0 0 0 0 0 0 0 0 0 0
-0 -0 -0 -0 -0 -0 0 0 0 0 0 0 0 0 0 0 0 0 0 0 0 0 0 0 0 0 0 0 0 0 0 0 0 0 0 0 0 0
-0 -0 -0 -0 0 0 0 0 0 0 0 0 0 0 0 0 0 0 0 0 0 0 0 0 0 0 0 0 0 0 0 0 0 0 0 0 0 0
0 0 0 0 0 0 0 0 0 0 0 0 0 0 0 0 0 0 0 0 0 0 0 0 0 0 0 0 0 0 0 0 0 0 0 0 0 0
0 0 0 0 0 0 0 0 0 0 0 0 0 0 0 0 0 0 0 0 0 0 0 0 0 0 0 0 0 0 0 0 0 0 0 0 0 0
0 0 0 0 0 0 0 0 0 0 0 0 0 0 0 0 0 0 0 0 0 0 0 0 0 0 0 0 0 0 0 0 0 0 0 0 0 0
0 0 0 0 0 0 0 0 0 0 0 0 0 0 0 0 0 0 0 0 0 0 0 0 0 0 0 0 0 0 0 0 0 0 0 0 0 0
0 0 0 0 0 0 0 0 0 0 0 0 0 0 0 0 0 0 0 0 0 0 0 0 0 0 0 0 0 0 0 0 0 0 0 0 0 0
0 0 0 0 0 0 0 0 0 0 0 0 0 0 0 0 0 0 0 0 0 0 0 0 0 0 0 0 0 0 0 0 0 0 0 0 0 0
0 0 0 0 0 0 0 0 0 0 0 0 0 0 0 0 0 0 0 0 0 0 0 0 0 0 0 0 0 0 0 0 0 0 0 0 0 0
0 0 0 0 0 0 0 0 0 0 0 0 0 0 0 0 0 0 0 0 0 0 0 0 0 0 0 0 0 0 0 0 0 0 0 0 0 0
Wind_Speed_500mb
39 36 36 34 34 31 28 24 31 34 28 21 16 13 9 10 6 7 8 12 10 10 15 15 16 15 19 23 26 30 36 39 44 45 48 51 52 49
37 35 38 37 33 27 25 19 23 35 23 23 18 14 13 12 7 5 2 4 7 12 13 13 14 16 24 30 32 32 37 43 44 47 47 48 50 51
38 41 37 35 38 39 35 26 25 27 31 23 19 17 19 13 7 5 5 3 6 8 10 14 20 24 26 31 35 33 38 40 42 42 44 45 46 48
28 24 24 17 12 20 20 22 29 20 21 17 21 23 23 18 14 8 6 5 5 6 13 20 26 25 28 31 32 29 31 35 37 41 44 47 50 51
20 19 14 16 21 20 18 16 13 18 15 12 18 22 20 17 14 15 13 11 9 12 20 22 25 27 28 26 27 26 29 31 36 38 42 45 47 50
20 18 17 10 10 10 14 13 17 15 14 15 18 20 23 23 23 20 16 13 10 13 17 20 22 22 24 21 20 21 25 27 30 35 39 41 44 47
13 18 17 14 15 12 11 9 8 11 17 21 22 26 29 32 30 27 23 17 14 14 17 18 16 12 16 17 16 19 18 21 26 32 35 39 42 45
15 16 16 16 12 11 13 13 14 16 19 22 22 24 26 29 30 30 24 23 18 14 19 18 13 6 5 10 11 14 13 16 22 28 31 34 38 42
14 12 11 11 13 13 12 14 15 17 19 17 14 17 25 28 29 29 26 19 5 14 19 17 15 7 2 5 11 11 11 12 17 21 25 29 34 39
12 13 13 13 12 12 14 15 16 17 17 19 18 20 21 26 24 18 19 16 13 17 12 15 15 10 3 6 10 12 11 9 13 16 20 25 29 34
13 10 10 14 14 15 14 15 13 14 17 18 20 23 25 28 25 28 28 24 22 18 13 9 14 11 7 3 8 7 12 12 11 12 15 20 24 27
11 10 13 15 16 17 17 16 15 16 19 21 23 25 27 26 25 27 26 24 22 16 18 16 15 10 7 10 11 14 11 13 18 16 15 17 20 22
15 17 18 15 17 17 18 20 21 21 23 27 27 30 31 32 31 31 29 29 28 20 12 22 15 16 14 13 17 18 15 12 13 18 22 18 19 20
16 14 16 18 19 19 22 23 24 26 27 28 31 33 31 32 34 34 34 32 32 30 24 22 24 22 22 21 21 18 19 15 17 18 20 21 18 22
21 22 21 22 23 24 25 26 26 27 29 30 30 30 30 33 36 39 40 38 37 34 32 32 31 28 27 29 28 22 23 21 22 20 23 23 18 15
27 27 28 27 27 28 30 30 32 32 34 36 37 37 38 37 38 39 40 40 41 41 39 37 36 36 34 33 33 30 27 25 18 22 26 24 18 16
37 38 35 32 31 31 33 34 37 37 38 40 42 44 43 42 43 45 47 47 47 44 41 40 41 42 40 39 40 36 35 35 33 31 31 30 24 20
43 44 40 37 36 34 34 35 38 39 40 43 46 48 48 49 51 51 51 51 52 49 46 45 46 47 45 47 45 44 43 41 39 38 34 33 31 27
48 44 43 40 38 38 38 38 37 37 41 46 49 51 53 55 58 58 58 60 60 58 55 54 55 54 53 57 52 44 40 41 43 44 40 37 33 30
53 46 44 41 41 41 40 40 39 42 46 48 50 52 55 56 59 61 61 63 62 61 61 63 66 62 60 57 55 55 51 45 44 42 42 40 38 37
60 54 46 45 45 43 44 43 45 48 50 53 54 53 54 54 56 59 60 61 62 63 67 70 64 56 56 59 66 64 59 55 49 46 45 46 46 47
66 63 59 54 50 47 46 47 50 52 54 56 56 56 57 57 57 58 59 60 62 63 64 61 59 58 63 67 70 67 61 59 59 55 54 50 47 41
65 64 62 61 59 57 55 56 57 59 59 57 58 59 59 62 59 59 61 62 61 61 62 61 60 62 63 67 65 64 63 61 64 66 63 57 55 55
Wind_Direction_500mb
212 205 218 226 236 248 262 256 252 243 232 228 236 251 254 236 246 307 351 355 325 8 30 29 49 58 65 68 61 58 58 59 58 53 45 43 40 39
212 216 217 226 239 252 243 263 259 239 229 229 230 225 211 212 243 276 31 355 26 36 38 50 61 65 74 76 76 67 63 58 54 50 45 42 38 37
224 209 215 240 260 250 251 265 258 228 240 230 217 215 189 208 219 178 123 67 38 44 49 72 76 80 86 84 81 66 61 57 50 44 39 33 29 29
193 188 202 236 221 230 244 257 248 233 243 243 207 204 195 203 178 171 150 144 117 103 80 92 83 84 87 82 74 63 60 52 43 37 33 31 28 28
213 211 215 230 228 255 271 237 227 223 235 240 208 200 207 211 187 179 178 148 127 105 102 101 96 97 92 79 77 70 56 47 38 35 33 29 29 28
210 222 228 236 204 200 200 211 227 235 231 220 213 211 209 195 196 188 185 164 157 124 120 117 105 98 92 81 80 70 52 42 38 34 32 32 32 30
204 210 190 197 192 203 219 229 212 214 227 224 224 218 215 207 203 185 192 178 167 145 132 129 120 114 101 82 59 62 52 43 35 30 33 31 31 28
168 167 186 192 200 222 240 233 223 218 239 240 242 231 220 205 198 191 191 183 164 166 156 137 135 158 102 75 47 36 46 44 31 25 27 31 27 25
171 181 194 202 212 215 221 224 225 231 227 227 239 224 211 204 196 190 193 189 225 186 163 159 162 182 138 29 32 17 25 35 27 24 25 23 20 18
180 180 188 197 212 221 238 238 234 233 226 213 205 197 198 196 191 195 193 206 209 195 183 183 188 206 222 12 8 338 357 10 22 23 17 13 13 13
191 202 232 240 235 244 253 245 230 224 214 207 193 188 191 184 191 195 206 209 209 213 208 224 203 212 237 279 309 329 333 342 1 0 354 359 3 8
244 259 264 262 261 255 252 241 227 213 204 199 191 192 191 189 194 201 211 221 210 227 226 216 216 214 266 268 293 300 299 321 333 335 337 337 348 359
261 270 263 262 267 254 242 234 223 214 207 196 198 201 198 199 201 206 210 202 217 231 254 224 232 227 246 279 282 293 290 283 312 323 331 325 331 347
260 265 267 270 268 254 244 237 227 219 207 207 209 208 207 211 214 216 216 214 218 227 238 238 239 239 250 268 277 285 287 282 291 306 312 322 324 330
253 256 260 263 262 251 245 239 233 224 219 216 216 220 220 222 224 226 227 228 231 232 237 245 242 244 249 259 270 274 281 283 286 293 307 316 313 308
257 256 255 255 254 247 242 240 238 236 230 224 220 223 227 232 237 239 238 238 240 237 236 241 243 245 251 258 262 265 271 260 281 285 290 303 310 297
262 259 258 258 262 259 252 245 244 244 245 243 240 236 233 234 239 241 243 242 245 246 246 247 249 250 254 260 264 265 267 266 271 277 280 286 294 295
263 264 261 259 259 260 257 256 255 254 254 254 252 251 249 244 242 243 246 249 250 248 248 249 252 254 257 261 266 268 265 266 265 272 275 275 284 289
260 263 266 265 263 259 257 254 254 256 253 252 252 253 252 251 252 254 252 251 251 253 254 253 253 254 254 258 266 269 272 266 264 268 272 273 278 280
263 263 264 263 262 261 261 260 258 253 253 253 251 250 251 253 253 254 255 257 258 258 257 256 255 257 260 266 265 267 266 269 266 267 267 268 271 274
267 267 267 267 267 264 260 257 255 254 256 257 256 256 255 255 256 257 258 259 259 258 257 257 263 265 263 261 259 262 265 267 266 265 265 263 266 268
271 273 274 271 268 265 263 261 258 256 255 257 259 259 259 258 256 257 258 259 260 263 265 265 264 263 260 259 262 264 266 265 264 261 259 259 258 261
271 271 270 269 269 267 264 262 260 260 258 258 258 259 259 260 260 258 258 258 260 260 261 262 263 261 261 262 264 264 263 263 262 260 260 259 260 261
Wind_Speed_850mb
39 36 36 34 34 31 28 24 31 34 28 21 16 13 9 10 6 7 8 12 10 10 15 15 16 15 19 23 26 30 36 39 44 45 48 51 52 49
37 35 38 37 33 27 25 19 23 35 23 23 18 14 13 12 7 5 2 4 7 12 13 13 14 16 24 30 32 32 37 43 44 47 47 48 50 51
38 41 37 35 38 39 35 26 25 27 31 23 19 17 19 13 7 5 5 3 6 8 10 14 20 24 26 31 35 33 38 40 42 42 44 45 46 48
28 24 24 17 12 20 20 22 29 20 21 17 21 23 23 18 14 8 6 5 5 6 13 20 26 25 28 31 32 29 31 35 37 41 44 47 50 51
20 19 14 16 21 20 18 16 13 18 15 12 18 22 20 17 14 15 13 11 9 12 20 22 25 27 28 26 27 26 29 31 36 38 42 45 47 50
20 18 17 10 10 10 14 13 17 15 14 15 18 20 23 23 23 20 16 13 10 13 17 20 22 22 24 21 20 21 25 27 30 35 39 41 44 47
13 18 17 14 15 12 11 9 8 11 17 21 22 26 29 32 30 27 23 17 14 14 17 18 16 12 16 17 16 19 18 21 26 32 35 39 42 45
15 16 16 16 12 11 13 13 14 16 19 22 22 24 26 29 30 30 24 23 18 14 19 18 13 6 5 10 11 14 13 16 22 28 31 34 38 42
14 12 11 11 13 13 12 14 15 17 19 17 14 17 25 28 29 29 26 19 5 14 19 17 15 7 2 5 11 11 11 12 17 21 25 29 34 39
12 13 13 13 12 12 14 15 16 17 17 19 18 20 21 26 24 18 19 16 13 17 12 15 15 10 3 6 10 12 11 9 13 16 20 25 29 34
13 10 10 14 14 15 14 15 13 14 17 18 20 23 25 28 25 28 28 24 22 18 13 9 14 11 7 3 8 7 12 12 11 12 15 20 24 27
11 10 13 15 16 17 17 16 15 16 19 21 23 25 27 26 25 27 26 24 22 16 18 16 15 10 7 10 11 14 11 13 18 16 15 17 20 22
15 17 18 15 17 17 18 20 21 21 23 27 27 30 31 32 31 31 29 29 28 20 12 22 15 16 14 13 17 18 15 12 13 18 22 18 19 20
16 14 16 18 19 19 22 23 24 26 27 28 31 33 31 32 34 34 34 32 32 30 24 22 24 22 22 21 21 18 19 15 17 18 20 21 18 22
21 22 21 22 23 24 25 26 26 27 29 30 30 30 30 33 36 39 40 38 37 34 32 32 31 28 27 29 28 22 23 21 22 20 23 23 18 15
27 27 28 27 27 28 30 30 32 32 34 36 37 37 38 37 38 39 40 40 41 41 39 37 36 36 34 33 33 30 27 25 18 22 26 24 18 16
37 38 35 32 31 31 33 34 37 37 38 40 42 44 43 42 43 45 47 47 47 44 41 40 41 42 40 39 40 36 35 35 33 31 31 30 24 20
43 44 40 37 36 34 34 35 38 39 40 43 46 48 48 49 51 51 51 51 52 49 46 45 46 47 45 47 45 44 43 41 39 38 34 33 31 27
48 44 43 40 38 38 38 38 37 37 41 46 49 51 53 55 58 58 58 60 60 58 55 54 55 54 53 57 52 44 40 41 43 44 40 37 33 30
53 46 44 41 41 41 40 40 39 42 46 48 50 52 55 56 59 61 61 63 62 61 61 63 66 62 60 57 55 55 51 45 44 42 42 40 38 37
60 54 46 45 45 43 44 43 45 48 50 53 54 53 54 54 56 59 60 61 62 63 67 70 64 56 56 59 66 64 59 55 49 46 45 46 46 47
66 63 59 54 50 47 46 47 50 52 54 56 56 56 57 57 57 58 59 60 62 63 64 61 59 58 63 67 70 67 61 59 59 55 54 50 47 41
65 64 62 61 59 57 55 56 57 59 59 57 58 59 59 62 59 59 61 62 61 61 62 61 60 62 63 67 65 64 63 61 64 66 63 57 55 55
Wind_Direction_850mb
212 205 218 226 236 248 262 256 252 243 232 228 236 251 254 236 246 307 351 355 325 8 30 29 49 58 65 68 61 58 58 59 58 53 45 43 40 39
212 216 217 226 239 252 243 263 259 239 229 229 230 225 211 212 243 276 31 355 26 36 38 50 61 65 74 76 76 67 63 58 54 50 45 42 38 37
224 209 215 240 260 250 251 265 258 228 240 230 217 215 189 208 219 178 123 67 38 44 49 72 76 80 86 84 81 66 61 57 50 44 39 33 29 29
193 188 202 236 221 230 244 257 248 233 243 243 207 204 195 203 178 171 150 144 117 103 80 92 83 84 87 82 74 63 60 52 43 37 33 31 28 28
213 211 215 230 228 255 271 237 227 223 235 240 208 200 207 211 187 179 178 148 127 105 102 101 96 97 92 79 77 70 56 47 38 35 33 29 29 28
210 222 228 236 204 200 200 211 227 235 231 220 213 211 209 195 196 188 185 164 157 124 120 117 105 98 92 81 80 70 52 42 38 34 32 32 32 30
204 210 190 197 192 203 219 229 212 214 227 224 224 218 215 207 203 185 192 178 167 145 132 129 120 114 101 82 59 62 52 43 35 30 33 31 31 28
168 167 186 192 200 222 240 233 223 218 239 240 242 231 220 205 198 191 191 183 164 166 156 137 135 158 102 75 47 36 46 44 31 25 27 31 27 25
171 181 194 202 212 215 221 224 225 231 227 227 239 224 211 204 196 190 193 189 225 186 163 159 162 182 138 29 32 17 25 35 27 24 25 23 20 18
180 180 188 197 212 221 238 238 234 233 226 213 205 197 198 196 191 195 193 206 209 195 183 183 188 206 222 12 8 338 357 10 22 23 17 13 13 13
191 202 232 240 235 244 253 245 230 224 214 207 193 188 191 184 191 195 206 209 209 213 208 224 203 212 237 279 309 329 333 342 1 0 354 359 3 8
244 259 264 262 261 255 252 241 227 213 204 199 191 192 191 189 194 201 211 221 210 227 226 216 216 214 266 268 293 300 299 321 333 335 337 337 348 359
261 270 263 262 267 254 242 234 223 214 207 196 198 201 198 199 201 206 210 202 217 231 254 224 232 227 246 279 282 293 290 283 312 323 331 325 331 347
260 265 267 270 268 254 244 237 227 219 207 207 209 208 207 211 214 216 216 214 218 227 238 238 239 239 250 268 277 285 287 282 291 306 312 322 324 330
253 256 260 263 262 251 245 239 233 224 219 216 216 220 220 222 224 226 227 228 231 232 237 245 242 244 249 259 270 274 281 283 286 293 307 316 313 308
257 256 255 255 254 247 242 240 238 236 230 224 220 223 227 232 237 239 238 238 240 237 236 241 243 245 251 258 262 265 271 260 281 285 290 303 310 297
262 259 258 258 262 259 252 245 244 244 245 243 240 236 233 234 239 241 243 242 245 246 246 247 249 250 254 260 264 265 267 266 271 277 280 286 294 295
263 264 261 259 259 260 257 256 255 254 254 254 252 251 249 244 242 243 246 249 250 248 248 249 252 254 257 261 266 268 265 266 265 272 275 275 284 289
260 263 266 265 263 259 257 254 254 256 253 252 252 253 252 251 252 254 252 251 251 253 254 253 253 254 254 258 266 269 272 266 264 268 272 273 278 280
263 263 264 263 262 261 261 260 258 253 253 253 251 250 251 253 253 254 255 257 258 258 257 256 255 257 260 266 265 267 266 269 266 267 267 268 271 274
267 267 267 267 267 264 260 257 255 254 256 257 256 256 255 255 256 257 258 259 259 258 257 257 263 265 263 261 259 262 265 267 266 265 265 263 266 268
271 273 274 271 268 265 263 261 258 256 255 257 259 259 259 258 256 257 258 259 260 263 265 265 264 263 260 259 262 264 266 265 264 261 259 259 258 261
271 271 270 269 269 267 264 262 260 260 258 258 258 259 259 260 260 258 258 258 260 260 261 262 263 261 261 262 264 264 263 263 262 260 260 259 260 261